星链-4451 (STARLINK-4451 )

导读 | 豆包AI

STARLINK-4451是美国太空探索技术公司(SpaceX)星链星座的一颗低轨通信卫星,于北京时间2022年8月12日发射入轨。作为星链全球互联网星座计划组成部分,该卫星运行于近地轨道,采用氪离子推进与自主碰撞规避技术,依托Ku频段提供卫星宽带服务,助力实现全球覆盖、低时延的天基互联网接入,支撑星链星座的商业通信与多场景应用布局。

基本信息
目录编号:
53492
目录名称:
STARLINK-4451
国际标识:
2022-099AD
轨道中心:
EARTH
卫星名称:
星链-4451
卫星全名:
星链-4451 (STARLINK-4451 )
卫星状态:
在轨 (已飞行1311 天)
发射日期:
2022-08-12 UTC
国别 :
美国 (US)
星等 :
--
轨道信息
数据来源 国际轨道数据
星历时间: 2026-03-15T06:00:02+0800
8小时前
查看轨道信息
半长轴: 6930.098km
偏心率: 0.0001944
轨道倾角: 97.604°
近地点辐角 84.944°
升交点赤经 195.355°
平近点角 105.133°
近地点: 550.613km
远地点: 553.309km
周期: 95.690分钟
每日圈数: 15.048518
详细信息
固有亮度:
5
最大亮度:
2.5
卫星平台:
Starlink v1.5
覆盖范围:
全球
运营商:
太空探索技术公司
运营商所在国:
美国
制造商(研发单位):
太空探索技术公司
制造商所在国:
美国
使用方式:
暂无
卫星简介
星链(Starlink)计划是由太空探索技术公司(SpaceX)提出的一个巨型低轨卫星互联网星座项目,计划在2019年至2024年间在太空搭建由约1.2万颗卫星组成的“星链”网络,其中1584颗将部署在地球上空550千米处的近地轨道,并从2020年开始工作。该卫星仍在工作。
2D轨道图
3D轨道图
轨道高度分析图
轨道倾角分析图
轨道综合分析图
查看轨道综合分析图